{"data":{"norad_id":44495,"intl_designator":"2019-054A","name":"BRO-1","alt_names":[],"object_type":"PAYLOAD","status":"ACTIVE","operator":null,"country":"FR","launch_date":"2019-08-19","launch_site_code":"RLLB","launch_vehicle":null,"mission":null,"orbit_class":"UNKNOWN","rcs_meters":null,"size_class":null,"mass_kg":null,"dimensions":null,"purposes":[],"wikipedia_slug":null,"has_3d_model":false,"image_url":null,"decayed_at":null,"tle_current":{"epoch":"2026-07-18T16:06:46.826784Z","epoch_age_seconds":5576478,"freshness":"OLD","line1":"1 44495U 19054A   26199.67137531  .08990616  10538-4  46223-3 0  9995","line2":"2 44495  44.9686  96.8667 0008980 246.6096 113.3886 16.42254960384795","mean_motion":16.4225496,"eccentricity":0.000898,"inclination_deg":44.9686,"raan_deg":96.8667,"arg_perigee_deg":246.6096,"mean_anomaly_deg":113.3886,"bstar":0.00046223,"rev_number":38479,"period_min":87.684314255321,"perigee_km":153.93978901113,"apogee_km":165.68194337881,"semimajor_km":6537.947866195,"source":"CELESTRAK","updated_at":"2026-07-19T09:00:22.301082Z"}}}